| time (UTC) | temp F | wind direction | speed knots | gust knots | rain 1hr in | rain 24hr in | rain mn in | humidity % | barometer mb |
| 20260905091618 | 60 | 208 | 0.0 | 0.0 | 0.00 | 0.00 | 0.00 | 99 | 1007.4 |
| 20260905091113 | 60 | 182 | 0.0 | 0.0 | 0.00 | 0.00 | 0.00 | 99 | 1007.3 |
| 20260905090613 | 60 | 216 | 1.7 | 1.7 | 0.00 | 0.00 | 0.00 | 99 | 1007.5 |
| 20260905090108 | 60 | 195 | 0.9 | 0.9 | 0.00 | 0.00 | 0.00 | 99 | 1007.4 |
| 20260905085606 | 60 | 207 | 0.0 | 0.0 | 0.00 | 0.00 | 0.00 | 98 | 1007.5 |
| 20260905085103 | 61 | 185 | 0.0 | 0.0 | 0.00 | 0.00 | 0.00 | 98 | 1007.6 |
| 20260905084601 | 61 | 199 | 0.9 | 0.9 | 0.00 | 0.00 | 0.00 | 98 | 1007.4 |
| 20260905084057 | 61 | 201 | 0.9 | 0.9 | 0.00 | 0.00 | 0.00 | 98 | 1007.6 |
| 20260905083551 | 61 | 182 | 0.0 | 0.0 | 0.00 | 0.00 | 0.00 | 98 | 1007.6 |
| 20260905083048 | 61 | 187 | 0.9 | 0.9 | 0.00 | 0.00 | 0.00 | 97 | 1007.5 |
| 20260905082543 | 61 | 185 | 1.7 | 1.7 | 0.00 | 0.00 | 0.00 | 97 | 1007.6 |
| 20260905082039 | 61 | 196 | 1.7 | 1.7 | 0.00 | 0.00 | 0.00 | 97 | 1007.6 |
| 20260905081538 | 61 | 201 | 0.9 | 0.9 | 0.00 | 0.00 | 0.00 | 97 | 1007.6 |
| 20260905081033 | 61 | 186 | 0.9 | 0.9 | 0.00 | 0.00 | 0.00 | 97 | 1007.4 |
| 20260905080532 | 62 | 194 | 0.9 | 0.9 | 0.00 | 0.00 | 0.00 | 97 | 1007.8 |
| 20260905080028 | 61 | 200 | 0.9 | 0.9 | 0.00 | 0.00 | 0.00 | 97 | 1007.6 |
| 20260905075521 | 62 | 182 | 0.0 | 0.9 | 0.00 | 0.00 | 0.00 | 97 | 1007.7 |
| 20260905075020 | 62 | 182 | 0.0 | 0.9 | 0.00 | 0.00 | 0.00 | 97 | 1007.6 |
| 20260905074510 | 62 | 189 | 0.0 | 0.0 | 0.00 | 0.00 | 0.00 | 97 | 1007.7 |
| 20260905074005 | 62 | 185 | 0.0 | 0.9 | 0.00 | 0.00 | 0.00 | 96 | 1007.5 |
| 20260905073500 | 62 | 182 | 0.9 | 0.9 | 0.00 | 0.00 | 0.00 | 95 | 1007.8 |
| 20260905072955 | 63 | 203 | 0.9 | 0.9 | 0.00 | 0.00 | 0.00 | 94 | 1007.7 |
| 20260905072450 | 63 | 208 | 0.9 | 0.9 | 0.00 | 0.00 | 0.00 | 94 | 1007.7 |
| 20260905071946 | 63 | 194 | 0.9 | 0.9 | 0.00 | 0.00 | 0.00 | 94 | 1007.7 |
| 20260905071443 | 63 | 208 | 0.9 | 0.9 | 0.00 | 0.00 | 0.00 | 94 | 1007.9 |
| 20260905070942 | 63 | 208 | 0.9 | 0.9 | 0.00 | 0.00 | 0.00 | 94 | 1007.9 |
| 20260905070438 | 63 | 199 | 0.9 | 0.9 | 0.00 | 0.00 | 0.00 | 93 | 1007.9 |
| 20260905065938 | 63 | 193 | 0.9 | 0.9 | 0.00 | 0.00 | 0.00 | 94 | 1007.8 |
| 20260905065436 | 63 | 234 | 1.7 | 1.7 | 0.00 | 0.00 | 0.00 | 93 | 1008.0 |
| 20260905064931 | 63 | 202 | 0.9 | 0.9 | 0.00 | 0.00 | 0.00 | 93 | 1007.9 |
| 20260905064426 | 63 | 210 | 0.9 | 0.9 | 0.00 | 0.00 | 0.00 | 94 | 1008.1 |
| 20260905063921 | 63 | 188 | 0.9 | 0.9 | 0.00 | 0.00 | 0.00 | 94 | 1008.1 |
| 20260905063415 | 63 | 225 | 0.9 | 1.7 | 0.00 | 0.00 | 0.00 | 94 | 1008.0 |
| 20260905062912 | 63 | 206 | 0.9 | 0.9 | 0.00 | 0.00 | 0.00 | 93 | 1008.1 |
| 20260905062406 | 63 | 204 | 0.9 | 1.7 | 0.00 | 0.00 | 0.00 | 93 | 1008.1 |
| 20260905061901 | 63 | 213 | 0.9 | 0.9 | 0.00 | 0.00 | 0.00 | 93 | 1008.1 |
| 20260905061401 | 63 | 197 | 0.9 | 0.9 | 0.00 | 0.00 | 0.00 | 93 | 1008.1 |
| 20260905060855 | 62 | 182 | 0.0 | 0.9 | 0.00 | 0.00 | 0.00 | 93 | 1008.2 |
| 20260905060352 | 62 | 190 | 0.9 | 0.9 | 0.00 | 0.00 | 0.00 | 93 | 1008.3 |
| 20260905055851 | 63 | 190 | 0.9 | 0.9 | 0.00 | 0.00 | 0.00 | 93 | 1008.1 |
| 20260905055346 | 62 | 213 | 0.9 | 0.9 | 0.00 | 0.00 | 0.00 | 92 | 1008.3 |
| 20260905054845 | 62 | 209 | 0.9 | 1.7 | 0.00 | 0.00 | 0.00 | 93 | 1008.2 |
| 20260905054342 | 62 | 186 | 0.9 | 1.7 | 0.00 | 0.00 | 0.00 | 93 | 1008.2 |
| 20260905053841 | 62 | 179 | 0.0 | 0.0 | 0.00 | 0.00 | 0.00 | 93 | 1008.4 |
| 20260905053336 | 62 | 182 | 0.0 | 0.0 | 0.00 | 0.00 | 0.00 | 93 | 1008.4 |
| 20260905052831 | 62 | 182 | 0.0 | 0.0 | 0.00 | 0.00 | 0.00 | 93 | 1008.3 |
| 20260905052331 | 63 | 184 | 0.0 | 0.0 | 0.00 | 0.00 | 0.00 | 93 | 1008.5 |
| 20260905051830 | 62 | 206 | 0.9 | 0.9 | 0.00 | 0.00 | 0.00 | 92 | 1008.5 |
| 20260905051326 | 63 | 183 | 0.9 | 0.9 | 0.00 | 0.00 | 0.00 | 92 | 1008.4 |
| 20260905050823 | 63 | 186 | 0.9 | 0.9 | 0.00 | 0.00 | 0.00 | 92 | 1008.3 |
| 20260905050319 | 63 | 180 | 0.9 | 1.7 | 0.00 | 0.00 | 0.00 | 91 | 1008.4 |
| 20260905045814 | 63 | 191 | 1.7 | 1.7 | 0.00 | 0.00 | 0.00 | 91 | 1008.7 |
| 20260905045309 | 63 | 205 | 0.0 | 0.9 | 0.00 | 0.00 | 0.00 | 91 | 1008.7 |
| 20260905044805 | 63 | 224 | 0.9 | 1.7 | 0.00 | 0.00 | 0.00 | 90 | 1008.4 |
| 20260905044300 | 64 | 205 | 0.9 | 0.9 | 0.00 | 0.00 | 0.00 | 89 | 1008.5 |
| 20260905043758 | 64 | 228 | 0.9 | 0.9 | 0.00 | 0.00 | 0.00 | 89 | 1008.6 |
| 20260905043253 | 64 | 188 | 0.9 | 0.9 | 0.00 | 0.00 | 0.00 | 88 | 1008.7 |
| 20260905042753 | 64 | 245 | 1.7 | 1.7 | 0.00 | 0.00 | 0.00 | 88 | 1008.6 |
| 20260905042253 | 64 | 253 | 1.7 | 1.7 | 0.00 | 0.00 | 0.00 | 88 | 1008.7 |
| 20260905041748 | 64 | 199 | 0.9 | 0.9 | 0.00 | 0.00 | 0.00 | 89 | 1008.7 |
| 20260905041243 | 64 | 197 | 1.7 | 1.7 | 0.00 | 0.00 | 0.00 | 88 | 1008.6 |
| 20260905040738 | 64 | 245 | 1.7 | 1.7 | 0.00 | 0.00 | 0.00 | 87 | 1008.7 |
| 20260905040237 | 64 | 267 | 1.7 | 2.6 | 0.00 | 0.00 | 0.00 | 88 | 1008.7 |
| 20260905035732 | 64 | 223 | 1.7 | 1.7 | 0.00 | 0.00 | 0.00 | 88 | 1008.7 |
| 20260905035228 | 64 | 220 | 2.6 | 2.6 | 0.00 | 0.00 | 0.00 | 88 | 1008.6 |
| 20260905034724 | 64 | 235 | 1.7 | 1.7 | 0.00 | 0.00 | 0.00 | 88 | 1008.6 |
| 20260905034219 | 64 | 209 | 1.7 | 1.7 | 0.00 | 0.00 | 0.00 | 88 | 1008.7 |
| 20260905033718 | 64 | 230 | 1.7 | 1.7 | 0.00 | 0.00 | 0.00 | 88 | 1008.8 |
| 20260905033213 | 64 | 191 | 0.9 | 0.9 | 0.00 | 0.00 | 0.00 | 88 | 1008.6 |
| 20260905032712 | 64 | 207 | 0.9 | 0.9 | 0.00 | 0.00 | 0.00 | 87 | 1008.6 |
| 20260905032208 | 64 | 195 | 0.9 | 0.9 | 0.00 | 0.00 | 0.00 | 88 | 1008.5 |
| 20260905031704 | 64 | 223 | 0.9 | 1.7 | 0.00 | 0.00 | 0.00 | 88 | 1008.6 |
| 20260905031159 | 64 | 199 | 0.9 | 0.9 | 0.00 | 0.00 | 0.00 | 87 | 1008.5 |
| 20260905030654 | 64 | 187 | 1.7 | 1.7 | 0.00 | 0.00 | 0.00 | 87 | 1008.5 |
| 20260905030149 | 64 | 224 | 1.7 | 1.7 | 0.00 | 0.00 | 0.00 | 86 | 1008.5 |
| 20260905025643 | 64 | 217 | 2.6 | 2.6 | 0.00 | 0.00 | 0.00 | 85 | 1008.7 |
| 20260905025139 | 64 | 226 | 1.7 | 1.7 | 0.00 | 0.00 | 0.00 | 85 | 1008.6 |
| 20260905024635 | 64 | 227 | 0.9 | 1.7 | 0.00 | 0.00 | 0.00 | 85 | 1008.8 |
| 20260905024131 | 64 | 217 | 1.7 | 1.7 | 0.00 | 0.00 | 0.00 | 85 | 1008.6 |
| 20260905023626 | 64 | 236 | 1.7 | 1.7 | 0.00 | 0.00 | 0.00 | 85 | 1008.6 |
| 20260905023125 | 64 | 251 | 1.7 | 1.7 | 0.00 | 0.00 | 0.00 | 85 | 1008.7 |
| 20260905022624 | 64 | 189 | 1.7 | 1.7 | 0.00 | 0.00 | 0.00 | 85 | 1008.7 |
| 20260905022120 | 64 | 234 | 0.9 | 0.9 | 0.00 | 0.00 | 0.00 | 85 | 1008.6 |
| 20260905021614 | 64 | 210 | 1.7 | 1.7 | 0.00 | 0.00 | 0.00 | 84 | 1008.5 |
| 20260905021110 | 64 | 240 | 1.7 | 1.7 | 0.00 | 0.00 | 0.00 | 84 | 1008.8 |
| 20260905020609 | 64 | 221 | 1.7 | 1.7 | 0.00 | 0.00 | 0.00 | 84 | 1008.7 |
| 20260905020104 | 64 | 217 | 1.7 | 1.7 | 0.00 | 0.00 | 0.00 | 84 | 1008.6 |
| 20260905015603 | 64 | 205 | 0.9 | 0.9 | 0.00 | 0.00 | 0.00 | 84 | 1008.9 |
| 20260905015057 | 64 | 199 | 0.9 | 1.7 | 0.00 | 0.00 | 0.00 | 83 | 1008.8 |
| 20260905014551 | 64 | 202 | 0.9 | 1.7 | 0.00 | 0.00 | 0.00 | 83 | 1009.0 |
| 20260905014048 | 65 | 191 | 0.9 | 0.9 | 0.00 | 0.00 | 0.00 | 83 | 1008.9 |
| 20260905013544 | 65 | 203 | 0.9 | 1.7 | 0.00 | 0.00 | 0.00 | 82 | 1009.1 |
| 20260905013039 | 65 | 198 | 0.9 | 1.7 | 0.00 | 0.00 | 0.00 | 81 | 1009.0 |
| 20260905012538 | 65 | 186 | 0.9 | 0.9 | 0.00 | 0.00 | 0.00 | 81 | 1009.0 |
| 20260905012036 | 65 | 196 | 0.9 | 1.7 | 0.00 | 0.00 | 0.00 | 81 | 1008.7 |
| 20260905011532 | 65 | 187 | 0.9 | 0.9 | 0.00 | 0.00 | 0.00 | 81 | 1008.7 |
| 20260905011026 | 65 | 209 | 0.9 | 0.9 | 0.00 | 0.00 | 0.00 | 81 | 1008.8 |
| 20260905010521 | 65 | 201 | 0.9 | 0.9 | 0.00 | 0.00 | 0.00 | 80 | 1008.6 |
| 20260905010018 | 65 | 206 | 0.9 | 0.9 | 0.00 | 0.00 | 0.00 | 79 | 1008.9 |
| 20260905005513 | 66 | 194 | 0.9 | 0.9 | 0.00 | 0.00 | 0.00 | 79 | 1009.0 |
| 20260905005009 | 66 | 198 | 0.9 | 0.9 | 0.00 | 0.00 | 0.00 | 79 | 1008.9 |
| 20260905004508 | 66 | 209 | 1.7 | 1.7 | 0.00 | 0.00 | 0.00 | 78 | 1008.9 |
| 20260905004004 | 66 | 198 | 1.7 | 1.7 | 0.00 | 0.00 | 0.00 | 77 | 1009.1 |
| 20260905003500 | 66 | 230 | 1.7 | 1.7 | 0.00 | 0.00 | 0.00 | 78 | 1008.8 |
| 20260905002954 | 66 | 240 | 1.7 | 1.7 | 0.00 | 0.00 | 0.00 | 77 | 1008.8 |
| 20260905002450 | 66 | 185 | 1.7 | 1.7 | 0.00 | 0.00 | 0.00 | 77 | 1008.6 |
| 20260905001943 | 66 | 218 | 1.7 | 1.7 | 0.00 | 0.00 | 0.00 | 78 | 1008.7 |
| 20260905001439 | 66 | 198 | 0.9 | 1.7 | 0.00 | 0.00 | 0.00 | 79 | 1008.8 |
| 20260905000933 | 66 | 196 | 0.0 | 0.9 | 0.00 | 0.00 | 0.00 | 79 | 1008.6 |
| 20260905000431 | 66 | 187 | 0.0 | 0.9 | 0.00 | 0.00 | 0.00 | 80 | 1008.6 |
| 20260904235924 | 66 | 194 | 0.9 | 0.9 | 0.00 | 0.00 | 0.00 | 79 | 1008.4 |
| 20260904235420 | 66 | 189 | 0.9 | 0.9 | 0.00 | 0.00 | 0.00 | 78 | 1008.6 |
| 20260904234920 | 66 | 187 | 0.0 | 0.0 | 0.00 | 0.00 | 0.00 | 79 | 1008.4 |
| 20260904234414 | 67 | 202 | 0.0 | 0.9 | 0.00 | 0.00 | 0.00 | 78 | 1008.5 |
| 20260904233909 | 67 | 188 | 0.0 | 0.0 | 0.00 | 0.00 | 0.00 | 78 | 1008.2 |
| 20260904233405 | 67 | 216 | 0.9 | 1.7 | 0.00 | 0.00 | 0.00 | 76 | 1008.4 |
| 20260904232902 | 68 | 197 | 0.9 | 0.9 | 0.00 | 0.00 | 0.00 | 76 | 1008.3 |
| 20260904232358 | 68 | 201 | 0.9 | 0.9 | 0.00 | 0.00 | 0.00 | 75 | 1008.4 |
| 20260904231853 | 68 | 219 | 1.7 | 1.7 | 0.00 | 0.00 | 0.00 | 75 | 1008.2 |
| 20260904231348 | 69 | 191 | 0.9 | 0.9 | 0.00 | 0.00 | 0.00 | 75 | 1008.3 |
| 20260904230844 | 69 | 211 | 0.9 | 1.7 | 0.00 | 0.00 | 0.00 | 74 | 1008.3 |
| 20260904230342 | 69 | 199 | 1.7 | 1.7 | 0.00 | 0.00 | 0.00 | 75 | 1008.4 |
| 20260904225838 | 69 | 243 | 0.9 | 1.7 | 0.00 | 0.00 | 0.00 | 76 | 1008.6 |
| 20260904225335 | 69 | 196 | 0.9 | 0.9 | 0.00 | 0.00 | 0.00 | 74 | 1008.3 |
| 20260904224830 | 70 | 218 | 0.9 | 0.9 | 0.00 | 0.00 | 0.00 | 73 | 1008.1 |
| 20260904224326 | 70 | 199 | 1.7 | 1.7 | 0.00 | 0.00 | 0.00 | 73 | 1008.2 |
| 20260904223825 | 71 | 189 | 1.7 | 1.7 | 0.00 | 0.00 | 0.00 | 72 | 1008.4 |
| 20260904223319 | 71 | 155 | 0.9 | 0.9 | 0.00 | 0.00 | 0.00 | 72 | 1008.3 |
| 20260904222815 | 71 | 245 | 0.9 | 2.6 | 0.00 | 0.00 | 0.00 | 75 | 1008.0 |
| 20260904222310 | 71 | 200 | 0.9 | 1.7 | 0.00 | 0.00 | 0.00 | 72 | 1007.9 |
| 20260904221805 | 72 | 209 | 1.7 | 2.6 | 0.00 | 0.00 | 0.00 | 71 | 1007.9 |
| 20260904221305 | 72 | 198 | 2.6 | 2.6 | 0.00 | 0.00 | 0.00 | 72 | 1008.0 |
| 20260904220800 | 72 | 176 | 0.9 | 0.9 | 0.00 | 0.00 | 0.00 | 73 | 1008.1 |
| 20260904220259 | 72 | 183 | 0.9 | 1.7 | 0.00 | 0.00 | 0.00 | 71 | 1008.2 |
| 20260904215754 | 72 | 186 | 0.9 | 0.9 | 0.00 | 0.00 | 0.00 | 74 | 1007.9 |
| 20260904215250 | 72 | 188 | 0.0 | 0.9 | 0.00 | 0.00 | 0.00 | 71 | 1007.9 |
| 20260904214745 | 73 | 294 | 3.5 | 4.3 | 0.00 | 0.00 | 0.00 | 68 | 1007.8 |
| 20260904214241 | 73 | 208 | 1.7 | 1.7 | 0.00 | 0.00 | 0.00 | 69 | 1007.9 |
| 20260904213739 | 73 | 192 | 0.9 | 1.7 | 0.00 | 0.00 | 0.00 | 71 | 1007.9 |
| 20260904213235 | 73 | 86 | 3.5 | 4.3 | 0.00 | 0.00 | 0.00 | 68 | 1008.0 |
| 20260904212731 | 74 | 164 | 1.7 | 2.6 | 0.00 | 0.00 | 0.00 | 67 | 1007.7 |
| 20260904212225 | 74 | 246 | 2.6 | 2.6 | 0.00 | 0.00 | 0.00 | 67 | 1008.0 |
| 20260904211725 | 73 | 207 | 1.7 | 1.7 | 0.00 | 0.00 | 0.00 | 67 | 1007.9 |
| 20260904211220 | 73 | 178 | 1.7 | 2.6 | 0.00 | 0.00 | 0.00 | 66 | 1007.8 |
| 20260904210715 | 73 | 175 | 0.9 | 0.9 | 0.00 | 0.00 | 0.00 | 68 | 1007.8 |
| 20260904210210 | 74 | 261 | 2.6 | 2.6 | 0.00 | 0.00 | 0.00 | 67 | 1008.0 |
| 20260904205706 | 74 | 244 | 0.9 | 1.7 | 0.00 | 0.00 | 0.00 | 71 | 1008.0 |
| 20260904205202 | 74 | 283 | 0.0 | 0.9 | 0.00 | 0.00 | 0.00 | 72 | 1007.9 |
| 20260904204658 | 74 | 201 | 1.7 | 1.7 | 0.00 | 0.00 | 0.00 | 70 | 1008.3 |
| 20260904204154 | 74 | 178 | 0.9 | 0.9 | 0.00 | 0.00 | 0.00 | 71 | 1007.9 |
| 20260904203649 | 75 | 213 | 3.5 | 4.3 | 0.00 | 0.00 | 0.00 | 67 | 1008.2 |
| 20260904203146 | 75 | 200 | 0.9 | 0.9 | 0.00 | 0.00 | 0.00 | 72 | 1008.1 |
| 20260904202641 | 75 | 308 | 0.9 | 2.6 | 0.00 | 0.00 | 0.00 | 74 | 1008.2 |
| 20260904202137 | 74 | 185 | 1.7 | 2.6 | 0.00 | 0.00 | 0.00 | 71 | 1008.3 |
| 20260904201632 | 75 | 204 | 0.9 | 0.9 | 0.00 | 0.00 | 0.00 | 71 | 1008.0 |
| 20260904201126 | 75 | 179 | 0.9 | 1.7 | 0.00 | 0.00 | 0.00 | 70 | 1008.0 |
| 20260904200621 | 75 | 113 | 1.7 | 1.7 | 0.00 | 0.00 | 0.00 | 70 | 1007.9 |
| 20260904200116 | 76 | 186 | 1.7 | 1.7 | 0.00 | 0.00 | 0.00 | 69 | 1007.8 |
| 20260904195614 | 76 | 186 | 0.0 | 0.0 | 0.00 | 0.00 | 0.00 | 73 | 1008.1 |
| 20260904195113 | 77 | 317 | 1.7 | 1.7 | 0.00 | 0.00 | 0.00 | 68 | 1008.2 |
| 20260904194608 | 76 | 203 | 0.0 | 0.9 | 0.00 | 0.00 | 0.00 | 70 | 1008.1 |
| 20260904194103 | 76 | 279 | 3.5 | 5.2 | 0.00 | 0.00 | 0.00 | 70 | 1008.0 |
| 20260904193557 | 77 | 175 | 1.7 | 1.7 | 0.00 | 0.00 | 0.00 | 71 | 1008.3 |
| 20260904193054 | 75 | 185 | 0.9 | 0.9 | 0.00 | 0.00 | 0.00 | 70 | 1008.3 |
| 20260904192554 | 78 | 187 | 0.0 | 0.9 | 0.00 | 0.00 | 0.00 | 67 | 1008.4 |
| 20260904192049 | 78 | 198 | 0.9 | 0.9 | 0.00 | 0.00 | 0.00 | 67 | 1008.0 |
| 20260904191546 | 76 | 185 | 0.0 | 0.0 | 0.00 | 0.00 | 0.00 | 75 | 1008.3 |
| 20260904191042 | 75 | 182 | 0.0 | 0.0 | 0.00 | 0.00 | 0.00 | 78 | 1008.3 |
| 20260904190537 | 75 | 175 | 0.9 | 0.9 | 0.00 | 0.00 | 0.00 | 73 | 1008.4 |
| 20260904190034 | 76 | 180 | 1.7 | 1.7 | 0.00 | 0.00 | 0.00 | 72 | 1008.3 |
| 20260904185530 | 76 | 186 | 0.0 | 0.0 | 0.00 | 0.00 | 0.00 | 72 | 1008.3 |
| 20260904185024 | 75 | 205 | 0.9 | 0.9 | 0.00 | 0.00 | 0.00 | 72 | 1008.3 |
| 20260904184519 | 74 | 196 | 0.9 | 0.9 | 0.00 | 0.00 | 0.00 | 76 | 1008.6 |
| 20260904184014 | 77 | 240 | 1.7 | 1.7 | 0.00 | 0.00 | 0.00 | 70 | 1008.6 |
| 20260904183509 | 76 | 190 | 0.0 | 0.0 | 0.00 | 0.00 | 0.00 | 74 | 1008.6 |
| 20260904183004 | 76 | 249 | 0.9 | 1.7 | 0.00 | 0.00 | 0.00 | 74 | 1008.7 |
| 20260904182500 | 77 | 171 | 0.9 | 1.7 | 0.00 | 0.00 | 0.00 | 70 | 1008.6 |
| 20260904181959 | 77 | 185 | 0.9 | 0.9 | 0.00 | 0.00 | 0.00 | 71 | 1008.8 |
| 20260904181455 | 77 | 252 | 0.9 | 1.7 | 0.00 | 0.00 | 0.00 | 70 | 1008.7 |
| 20260904180950 | 77 | 236 | 1.7 | 2.6 | 0.00 | 0.00 | 0.00 | 67 | 1008.5 |
| 20260904180444 | 77 | 192 | 0.0 | 0.9 | 0.00 | 0.00 | 0.00 | 73 | 1008.9 |
| 20260904175944 | 78 | 212 | 1.7 | 1.7 | 0.00 | 0.00 | 0.00 | 69 | 1008.7 |
| 20260904175443 | 76 | 183 | 0.9 | 0.9 | 0.00 | 0.00 | 0.00 | 70 | 1008.8 |
| 20260904174938 | 74 | 186 | 0.9 | 0.9 | 0.00 | 0.00 | 0.00 | 75 | 1009.0 |
| 20260904174433 | 76 | 196 | 2.6 | 2.6 | 0.00 | 0.00 | 0.00 | 72 | 1008.9 |
| 20260904173929 | 77 | 234 | 0.9 | 1.7 | 0.00 | 0.00 | 0.00 | 67 | 1009.0 |
| 20260904173419 | 76 | 177 | 0.0 | 0.9 | 0.00 | 0.00 | 0.00 | 69 | 1009.1 |
| 20260904172914 | 74 | 179 | 0.9 | 1.7 | 0.00 | 0.00 | 0.00 | 74 | 1009.1 |
| 20260904172414 | 77 | 260 | 1.7 | 1.7 | 0.00 | 0.00 | 0.00 | 67 | 1009.0 |
| 20260904171909 | 77 | 150 | 0.9 | 0.9 | 0.00 | 0.00 | 0.00 | 72 | 1009.0 |
| 20260904171404 | 76 | 233 | 0.0 | 0.9 | 0.00 | 0.00 | 0.00 | 71 | 1008.7 |
| 20260904170901 | 77 | 196 | 1.7 | 1.7 | 0.00 | 0.00 | 0.00 | 72 | 1008.8 |
| 20260904170355 | 76 | 216 | 0.9 | 1.7 | 0.00 | 0.00 | 0.00 | 68 | 1008.8 |
| 20260904165850 | 77 | 254 | 0.9 | 1.7 | 0.00 | 0.00 | 0.00 | 70 | 1008.8 |
| 20260904165344 | 77 | 149 | 0.9 | 0.9 | 0.00 | 0.00 | 0.00 | 68 | 1008.8 |
| 20260904164838 | 77 | 247 | 1.7 | 2.6 | 0.00 | 0.00 | 0.00 | 71 | 1008.8 |
| 20260904164333 | 75 | 76 | 1.7 | 2.6 | 0.00 | 0.00 | 0.00 | 71 | 1008.9 |
| 20260904163829 | 77 | 149 | 0.9 | 0.9 | 0.00 | 0.00 | 0.00 | 73 | 1008.7 |
| 20260904163329 | 76 | 203 | 1.7 | 1.7 | 0.00 | 0.00 | 0.00 | 69 | 1009.0 |
| 20260904162828 | 76 | 243 | 1.7 | 1.7 | 0.00 | 0.00 | 0.00 | 72 | 1008.9 |
| 20260904162324 | 77 | 237 | 1.7 | 1.7 | 0.00 | 0.00 | 0.00 | 70 | 1009.0 |
| 20260904161819 | 76 | 183 | 0.0 | 0.9 | 0.00 | 0.00 | 0.00 | 69 | 1009.4 |
| 20260904161319 | 76 | 255 | 1.7 | 1.7 | 0.00 | 0.00 | 0.00 | 70 | 1009.3 |
| 20260904160814 | 76 | 169 | 2.6 | 4.3 | 0.00 | 0.00 | 0.00 | 69 | 1009.4 |
| 20260904160310 | 76 | 233 | 2.6 | 2.6 | 0.00 | 0.00 | 0.00 | 70 | 1009.2 |
| 20260904155809 | 76 | 224 | 2.6 | 2.6 | 0.00 | 0.00 | 0.00 | 68 | 1009.3 |
| 20260904155307 | 76 | 232 | 1.7 | 1.7 | 0.00 | 0.00 | 0.00 | 73 | 1009.3 |
| 20260904154803 | 76 | 202 | 2.6 | 2.6 | 0.00 | 0.00 | 0.00 | 69 | 1009.4 |
| 20260904154258 | 75 | 292 | 2.6 | 2.6 | 0.00 | 0.00 | 0.00 | 72 | 1009.6 |
| 20260904153753 | 75 | 242 | 2.6 | 2.6 | 0.00 | 0.00 | 0.00 | 72 | 1009.5 |
| 20260904153249 | 76 | 223 | 1.7 | 1.7 | 0.00 | 0.00 | 0.00 | 77 | 1009.5 |
| 20260904152745 | 76 | 224 | 0.9 | 0.9 | 0.00 | 0.00 | 0.00 | 74 | 1009.5 |
| 20260904152240 | 75 | 170 | 0.9 | 1.7 | 0.00 | 0.00 | 0.00 | 78 | 1009.3 |
| 20260904151735 | 75 | 194 | 0.9 | 0.9 | 0.00 | 0.00 | 0.00 | 73 | 1009.6 |
| 20260904151234 | 75 | 194 | 0.0 | 0.0 | 0.00 | 0.00 | 0.00 | 71 | 1009.7 |
| 20260904150730 | 76 | 180 | 0.9 | 0.9 | 0.00 | 0.00 | 0.00 | 71 | 1009.8 |
| 20260904150224 | 75 | 219 | 1.7 | 1.7 | 0.00 | 0.00 | 0.00 | 76 | 1009.9 |
| 20260904145723 | 75 | 178 | 0.9 | 1.7 | 0.00 | 0.00 | 0.00 | 77 | 1009.8 |
| 20260904145219 | 75 | 176 | 0.9 | 1.7 | 0.00 | 0.00 | 0.00 | 74 | 1009.7 |
| 20260904144714 | 74 | 275 | 1.7 | 2.6 | 0.00 | 0.00 | 0.00 | 77 | 1009.8 |
| 20260904144209 | 74 | 225 | 1.7 | 1.7 | 0.00 | 0.00 | 0.00 | 77 | 1009.9 |
| 20260904143705 | 74 | 170 | 1.7 | 1.7 | 0.00 | 0.00 | 0.00 | 78 | 1009.5 |
| 20260904143202 | 73 | 180 | 0.9 | 0.9 | 0.00 | 0.00 | 0.00 | 80 | 1009.6 |
| 20260904142658 | 73 | 234 | 1.7 | 1.7 | 0.00 | 0.00 | 0.00 | 80 | 1009.8 |
| 20260904142153 | 73 | 260 | 0.9 | 1.7 | 0.00 | 0.00 | 0.00 | 81 | 1009.6 |
| 20260904141648 | 73 | 256 | 1.7 | 1.7 | 0.00 | 0.00 | 0.00 | 83 | 1009.6 |
| 20260904141143 | 72 | 185 | 1.7 | 1.7 | 0.00 | 0.00 | 0.00 | 84 | 1009.5 |
| 20260904140639 | 73 | 180 | 0.0 | 0.9 | 0.00 | 0.00 | 0.00 | 82 | 1009.6 |
| 20260904140133 | 73 | 212 | 1.7 | 1.7 | 0.00 | 0.00 | 0.00 | 83 | 1009.6 |
| 20260904135627 | 72 | 223 | 0.9 | 0.9 | 0.00 | 0.00 | 0.00 | 87 | 1009.5 |
| 20260904135123 | 72 | 259 | 1.7 | 1.7 | 0.00 | 0.00 | 0.00 | 85 | 1009.4 |
| 20260904134619 | 72 | 156 | 2.6 | 2.6 | 0.00 | 0.00 | 0.00 | 85 | 1009.7 |
| 20260904134118 | 71 | 205 | 0.9 | 0.9 | 0.00 | 0.00 | 0.00 | 88 | 1009.4 |
| 20260904133613 | 71 | 200 | 0.9 | 0.9 | 0.00 | 0.00 | 0.00 | 87 | 1009.5 |
| 20260904133109 | 70 | 225 | 0.9 | 0.9 | 0.00 | 0.00 | 0.00 | 89 | 1009.6 |
| 20260904132608 | 70 | 184 | 0.9 | 1.7 | 0.00 | 0.00 | 0.00 | 90 | 1009.6 |
| 20260904132103 | 70 | 221 | 1.7 | 2.6 | 0.00 | 0.00 | 0.00 | 91 | 1009.5 |
| 20260904131602 | 69 | 210 | 0.9 | 1.7 | 0.00 | 0.00 | 0.00 | 91 | 1009.6 |
| 20260904131058 | 68 | 178 | 0.0 | 0.9 | 0.00 | 0.00 | 0.00 | 93 | 1009.6 |
| 20260904130558 | 68 | 194 | 0.9 | 0.9 | 0.00 | 0.00 | 0.00 | 93 | 1009.5 |
| 20260904130052 | 68 | 205 | 0.9 | 1.7 | 0.00 | 0.00 | 0.00 | 94 | 1009.7 |
| 20260904125550 | 68 | 249 | 1.7 | 1.7 | 0.00 | 0.00 | 0.00 | 94 | 1009.6 |
| 20260904125049 | 67 | 186 | 2.6 | 5.2 | 0.00 | 0.00 | 0.00 | 96 | 1009.4 |
| 20260904124545 | 67 | 204 | 0.9 | 0.9 | 0.00 | 0.00 | 0.00 | 96 | 1009.6 |
| 20260904124040 | 67 | 180 | 1.7 | 2.6 | 0.00 | 0.00 | 0.00 | 96 | 1009.6 |
| 20260904123535 | 66 | 259 | 2.6 | 2.6 | 0.00 | 0.00 | 0.00 | 97 | 1009.5 |
| 20260904123030 | 66 | 195 | 0.0 | 0.9 | 0.00 | 0.00 | 0.00 | 98 | 1009.7 |
| 20260904122525 | 66 | 220 | 0.0 | 0.0 | 0.00 | 0.00 | 0.00 | 99 | 1009.6 |
| 20260904122019 | 65 | 190 | 0.0 | 0.0 | 0.00 | 0.00 | 0.00 | 99 | 1009.6 |
| 20260904121514 | 65 | 207 | 0.9 | 1.7 | 0.00 | 0.00 | 0.00 | 99 | 1009.7 |
| 20260904121005 | 65 | 205 | 0.9 | 0.9 | 0.00 | 0.00 | 0.00 | 99 | 1009.7 |
| 20260904120501 | 65 | 181 | 0.0 | 0.0 | 0.00 | 0.00 | 0.00 | 99 | 1009.7 |
| 20260904115956 | 64 | 246 | 0.9 | 1.7 | 0.00 | 0.00 | 0.00 | 99 | 1009.5 |
| 20260904115452 | 64 | 171 | 0.9 | 0.9 | 0.00 | 0.00 | 0.00 | 99 | 1009.7 |
| 20260904114950 | 64 | 240 | 0.9 | 0.9 | 0.00 | 0.00 | 0.00 | 99 | 1009.7 |
| 20260904114445 | 64 | 233 | 0.9 | 0.9 | 0.00 | 0.00 | 0.00 | 99 | 1009.6 |
| 20260904113941 | 64 | 226 | 0.0 | 0.9 | 0.00 | 0.00 | 0.00 | 99 | 1009.4 |
| 20260904113440 | 64 | 197 | 1.7 | 1.7 | 0.00 | 0.00 | 0.00 | 99 | 1009.5 |
| 20260904112934 | 64 | 259 | 0.9 | 1.7 | 0.00 | 0.00 | 0.00 | 99 | 1009.6 |
| 20260904112430 | 64 | 219 | 0.0 | 0.9 | 0.00 | 0.00 | 0.00 | 99 | 1009.3 |
| 20260904111925 | 63 | 193 | 0.9 | 0.9 | 0.00 | 0.00 | 0.00 | 99 | 1009.3 |
| 20260904111421 | 63 | 216 | 1.7 | 1.7 | 0.00 | 0.00 | 0.00 | 99 | 1009.4 |
| 20260904110917 | 62 | 221 | 0.0 | 0.0 | 0.00 | 0.00 | 0.00 | 99 | 1009.3 |
| 20260904110415 | 62 | 213 | 0.0 | 0.0 | 0.00 | 0.00 | 0.00 | 99 | 1009.2 |
| 20260904105911 | 61 | 203 | 0.0 | 0.9 | 0.00 | 0.00 | 0.00 | 99 | 1009.1 |
| 20260904105406 | 61 | 182 | 0.0 | 0.0 | 0.00 | 0.00 | 0.00 | 99 | 1008.9 |
| 20260904104901 | 61 | 189 | 0.0 | 0.0 | 0.00 | 0.00 | 0.00 | 99 | 1008.9 |
| 20260904104355 | 61 | 196 | 0.0 | 0.0 | 0.00 | 0.00 | 0.00 | 99 | 1008.9 |
| 20260904103853 | 61 | 185 | 0.0 | 0.0 | 0.00 | 0.00 | 0.00 | 99 | 1008.9 |
| 20260904103353 | 61 | 221 | 0.0 | 0.0 | 0.00 | 0.00 | 0.00 | 99 | 1008.9 |
| 20260904102849 | 61 | 183 | 0.0 | 0.0 | 0.00 | 0.00 | 0.00 | 99 | 1009.0 |
| 20260904102344 | 61 | 186 | 0.0 | 0.0 | 0.00 | 0.00 | 0.00 | 99 | 1008.6 |
| 20260904101839 | 61 | 185 | 0.0 | 0.0 | 0.00 | 0.00 | 0.00 | 99 | 1008.7 |
| 20260904101336 | 61 | 180 | 0.0 | 0.0 | 0.00 | 0.00 | 0.00 | 99 | 1008.8 |
| 20260904100831 | 61 | 180 | 0.0 | 0.0 | 0.00 | 0.00 | 0.00 | 99 | 1008.8 |
| 20260904100327 | 61 | 185 | 0.0 | 0.0 | 0.00 | 0.00 | 0.00 | 99 | 1008.5 |
| 20260904095822 | 61 | 201 | 0.0 | 0.0 | 0.00 | 0.00 | 0.00 | 99 | 1008.7 |
| 20260904095316 | 61 | 182 | 0.0 | 0.0 | 0.00 | 0.00 | 0.00 | 99 | 1008.6 |
| 20260904094812 | 61 | 183 | 0.0 | 0.0 | 0.00 | 0.00 | 0.00 | 99 | 1008.5 |
| 20260904094307 | 61 | 183 | 0.0 | 0.0 | 0.00 | 0.00 | 0.00 | 99 | 1008.4 |
| 20260904093803 | 61 | 181 | 0.0 | 0.0 | 0.00 | 0.00 | 0.00 | 99 | 1008.5 |
| 20260904093302 | 61 | 181 | 0.0 | 0.0 | 0.00 | 0.00 | 0.00 | 99 | 1008.3 |
| 20260904092757 | 62 | 180 | 0.0 | 0.0 | 0.00 | 0.00 | 0.00 | 99 | 1008.3 |
| 20260904092254 | 61 | 184 | 0.0 | 0.0 | 0.00 | 0.00 | 0.00 | 99 | 1008.3 |
| 20260904091751 | 62 | 181 | 0.0 | 0.0 | 0.00 | 0.00 | 0.00 | 99 | 1008.2 |